Flag for Poland Weather past 2 weeks in Szczecin, Poland

Now
52 °F

Light rain. Partly sunny.


Feels Like: 47 °F
Forecast: 38 / 41 °F
Wind: 14 mph from Southwest

Location: Szczecin Airport

Current Time: Dec 19, 2014 at 10:54:46 AM

Latest Report: Dec 19, 2014 at 10:30 AM


Visibility: 5 mi

Pressure: 29.59 "Hg

Humidity: 94%

Dew point: 50 °F

Location of SzczecinLocation

Historic Weather in Szczecin — Graph

°F

Szczecin temperature yesterday

Maximum temperature yesterday: 50 °F (at 5:00 PM)
Minimum temperature yesterday: 37 °F (at 12:00 AM)
Average temperature yesterday: 45 °F

Past Weeks' High & Low Weather Summary

 TemperatureHumidityPressure
High54 °F (Dec 19, 5:30 AM)100% (Dec 5, 5:30 AM)30.36 "Hg (Dec 5, 5:30 AM)
Low28 °F (Dec 14, 6:30 AM)71% (Dec 12, 8:30 PM)29.27 "Hg (Dec 12, 7:30 PM)
Average37 °F93%29.88 "Hg
* Reported Dec 4 10:00 AM — Dec 19 10:00 AM, Szczecin, Weather by CustomWeather, © 2014

Note: Actual official high and low records may vary slightly from our data, if they occured in-between our weather recording intervals... More about our weather records

Advertising

Szczecin weather history for previous 24 hours

 ConditionsComfort  
Time TempWeatherWind HumidityBarometerVisibility
10:00 AM
Dec 19
52 °FLight rain. Partly sunny.14 mph100%29.59 "Hg5 mi
9:30 AM52 °FLight rain. Partly sunny.13 mph100%29.59 "Hg5 mi
9:00 AM52 °FBroken clouds.13 mph94%29.59 "HgN/A
8:30 AM52 °FBroken clouds.12 mph100%29.59 "HgN/A
8:00 AM52 °FLight rain. Fog.13 mph94%29.59 "Hg3 mi
7:30 AM52 °FPassing clouds.14 mph100%29.59 "HgN/A
7:00 AM52 °FPartly cloudy.13 mph94%29.59 "HgN/A
6:30 AM52 °FPartly cloudy.9 mph94%29.62 "HgN/A
6:00 AM52 °FPartly cloudy.10 mph100%29.62 "HgN/A
5:30 AM54 °FPartly cloudy.13 mph94%29.62 "HgN/A
5:00 AM52 °FPartly cloudy.13 mph100%29.62 "HgN/A
4:30 AM52 °FPartly cloudy.12 mph100%29.62 "HgN/A
4:00 AM52 °FPartly cloudy.12 mph100%29.59 "HgN/A
3:30 AM52 °FLight rain. Partly cloudy.10 mph100%29.59 "HgN/A
3:00 AM52 °FLight rain. Partly cloudy.12 mph100%29.59 "HgN/A
2:30 AM52 °FLight rain. Partly cloudy.12 mph100%29.59 "HgN/A
2:00 AM52 °FPartly cloudy.10 mph100%29.59 "Hg5 mi
1:30 AM52 °FDrizzle. Fog.10 mph100%29.59 "Hg3 mi
1:00 AM52 °FPassing clouds.10 mph94%29.59 "Hg5 mi
12:30 AM50 °FLight rain. Fog.10 mph100%29.59 "Hg1 mi
12:00 AM50 °FLight rain. Fog.12 mph100%29.59 "Hg1 mi
11:30 PM
Dec 18
50 °FLight rain. Fog.13 mph100%29.59 "Hg2 mi
11:00 PM50 °FLight rain. Fog.13 mph100%29.59 "Hg2 mi
10:30 PM50 °FLight rain. Partly cloudy.13 mph100%29.59 "Hg4 mi
10:00 PM50 °FLight rain. Partly cloudy.13 mph94%29.59 "Hg5 mi
9:30 PM50 °FLight rain. Partly cloudy.12 mph94%29.59 "Hg5 mi
9:00 PM50 °FLight rain. Partly cloudy.14 mph94%29.59 "Hg4 mi
8:30 PM50 °FLight rain. Partly cloudy.13 mph94%29.59 "Hg4 mi
8:00 PM50 °FLight rain. Partly cloudy.12 mph94%29.62 "Hg4 mi
7:30 PM50 °FPartly cloudy.13 mph94%29.62 "Hg4 mi
7:00 PM50 °FPartly cloudy.12 mph94%29.62 "HgN/A
6:30 PM50 °FPartly cloudy.13 mph94%29.62 "HgN/A
6:00 PM50 °FPassing clouds.12 mph94%29.65 "HgN/A
5:30 PM50 °FPassing clouds.13 mph94%29.65 "HgN/A
5:00 PM50 °FPassing clouds.12 mph94%29.65 "Hg5 mi
4:30 PM48 °FPartly cloudy.10 mph94%29.65 "Hg5 mi
4:00 PM48 °FPassing clouds.12 mph94%29.68 "Hg4 mi
3:30 PM48 °FFog.12 mph94%29.68 "Hg3 mi
3:00 PM48 °FFog.12 mph94%29.68 "Hg3 mi
2:30 PM48 °FFog.12 mph94%29.68 "Hg3 mi
2:00 PM46 °FLight rain. Fog.9 mph100%29.71 "Hg1 mi
1:30 PM46 °FDrizzle. Fog.8 mph100%29.71 "Hg2 mi
1:00 PM46 °FPartly sunny.9 mph100%29.71 "Hg5 mi
12:30 PM46 °FPartly sunny.8 mph93%29.71 "Hg5 mi
12:00 PM46 °FPassing clouds.7 mph93%29.74 "Hg5 mi
11:30 AM46 °FPassing clouds.6 mph93%29.74 "Hg5 mi
11:00 AM45 °FPassing clouds.7 mph93%29.74 "Hg5 mi
10:30 AM45 °FScattered clouds.7 mph100%29.74 "Hg5 mi
10:00 AM45 °FPartly sunny.6 mph93%29.74 "Hg5 mi
Weather by CustomWeather, © 2014

See weather overviewHow to use our weather pages